Regional Weather Roundup
Issued by NWS Goodland, KS

Home | Current Version | Previous Version | Graphics & Text | Print | Product List | Glossary On
Versions: 1 2 3 4 5 6 7 8 9 10 11 12 13 14 15 16 17 18 19 20 21 22 23 24 25 26 27 28 29 30 31 32 33 34 35 36 37 38 39 40 41 42 43 44 45 46 47 48 49 50
000
ASUS43 KGLD 290308
RWRGLD

GOODLAND FORECAST AREA HOURLY WEATHER ROUNDUP
NATIONAL WEATHER SERVICE GOODLAND KS
800 PM MST FRI NOV 28 2014

...OFFICIAL OBSERVATIONS...

CITY           SKY/WX    TMP DP  RH WIND       PRES   REMARKS
GOODLAND KS    CLOUDY    47  18  31 W3        29.75F
HILL CITY KS   MOCLDY    45  20  36 W6        29.71S
IMPERIAL NEB   MOCLDY    42  18  37 W5        29.72F
MCCOOK NEB     MOCLDY    48  13  24 SW10      29.70S
AKRON CO       CLOUDY    53  13  20 S6        29.77F
BURLINGTON CO  CLOUDY    49  13  23 W6        29.75F
LIMON CO       CLOUDY    32  17  54 N8        29.83S
$$

...UNOFFICIAL OBSERVATIONS...

CITY           SKY/WX    TMP DP  RH WIND       PRES   REMARKS
COLBY KS       CLEAR     48  27  43 SW6       29.73F
NORTON KS      CLEAR     48  12  23 SW8       29.68F
SHARON SPRINGS   N/A     48  22  35 SW9         N/A
TRIBUNE KS     CLOUDY    46  28  49 SW5       29.78F
TRENTON NEB      N/A     53  32  45 SW5         N/A
YUMA CO          N/A     42  27  54 CALM        N/A
$$



USA.gov is the U.S. government's official web portal to all federal, state and local government web resources and services.